Погода в Колке

Погода в Колке : погода сейчас, прогноз погоды и архив. Всё, что Вы хотите узнать о погоде в Колке!

Поиск расширенной информации на нашем сайте:

Другие новости

Новости СМИ2

Главная страница сайта

Новости сайта

03.07.2017

Напоминаем, что на нашем специализированном сайте Метеоцентр.Азия вы можете получить высокодетализированные автоматические прогнозы погоды по пунктам России, СНГ и мира в авиационном формате (включающие направление и скорость ветра, видимость, явления погоды, количество и форму облачности, нижнюю и верхнюю границу облачности).


Погода в Колке - сегодня

Время (UTC), дата Ветер
(°,м/с) 
Видим.   Явления Облачность Т
(°С)
Тd
(°С)
f(%) Тe
(°С)
Pmin
(гПа)
dP
(гПа)
Po
(мм)
O2
(г/м3)
Тmin Tmax R s Состояние
почвы
18 17.08.17 280 (З) 10 км    3/0 средняя 
[Ac trans]
+18.1 +16.5 90 +30  1018  0.3  763  284    +22.8       
21 17.08.17 270 (З) н/о    н/о 
+17.5 +15.6 89 +27  1018.3  0.3  763  285           
00 18.08.17 250 (З) н/о    н/о 
+16.7 +14.8 89 +26  1017.9  -0.4  763  287           
03 18.08.17 180 (Ю) н/о    н/о 
+12.9 +12.4 97 +18  1017.8  -0.1  763  290           
06 18.08.17 170 (Ю) 10 км    10/0 средняя 
[As op]
+17.2 +13.3 78 +24  1017.2  -0.6  762  286  +12.5         
09 18.08.17 140 (ЮВ) н/о    н/о 
+18.5 +14.9 80 +27  1015.9  -1.3  761  283           
12 18.08.17 160 (Ю) н/о    н/о 
+18.4 +15 81 +27  1014.8  -1.1  761  284           
15 18.08.17 140 (ЮВ) н/о    н/о 
+19.9 +16.5 81 +32  1013.5  -1.2  760  281           
18 18.08.17 230 (ЮЗ) 10 км    8/0 средняя, верхняя 
[Cu med, cong|Ac trans|Ci]
+18.8 +16.1 84 +30  1013.9  0.4  760  282    +20.5  0.8     
21 18.08.17 тихо ()   н/о    н/о 
+13.9 +13.4 97 +20  1013.5  -0.5  760  288           
00 19.08.17 150 (ЮВ) н/о    н/о 
+16 +15.8 99 +27  1012.3  -1.2  759  285           
03 19.08.17 130 (ЮВ) н/о    н/о 
+17.9 +17.5 98 +31  1010.1  -2.1  757  282           
06 19.08.17 180 (Ю) 10 км    9/0 кучево-дожд. 
[Cb cap]
+18.6 +17.4 93 +32  1007.8  -2.3  755  280  +13.3    0.0     
09 19.08.17 200 (Ю) н/о    н/о 
+22.2 +18.3 79 +37  1007.5  -0.3  755  276           
12 19.08.17 260 (З) 4{14}  н/о    н/о 
+20.6 +15.3 72 +30  1010.4  2.9  757  281           
15 19.08.17 250 (З) 4{12}  н/о    н/о 
+21.1 +14.4 66 +29  1011.3  0.9  758  280           
21 19.08.17 220 (ЮЗ) н/о    н/о 
+15.3 +13.3 88 +22  1015.1  1.8  761  287           
00 20.08.17 230 (ЮЗ) н/о    н/о 
+13.5 +12.6 94 +18  1015.6  0.5  761  290           
03 20.08.17 230 (ЮЗ) н/о    н/о 
+12.6 +11.7 94 +15  1016  0.4  762  291           
06 20.08.17 210 (ЮЗ) 10 км    8/0 средняя 
[Ac trans]
+16.3 +13.7 85 +23  1016.7  0.7  762  286  +12.3         
09 20.08.17 230 (ЮЗ) 3{10}  н/о    н/о 
+20.2 +13.3 65 +26  1016.9  0.3  762  283           
12 20.08.17 260 (З) 2{10}  н/о    н/о 
+17.1 +14.8 86 +26  1016.8  -0.2  762  286           
15 20.08.17 180 (Ю) н/о    н/о 
+17.7 +15.1 85 +27  1016.4  -0.4  762  284           
18 20.08.17 200 (Ю) 4000 м  слаб. ливневой дождь  9/0 кучево-дожд., средняя 
[Cb cap|Ac trans]
+15.2 +13.8 91 +23  1016.1  -0.3  762  287    +21.4     
21 20.08.17 230 (ЮЗ) н/о    н/о 
+13.5 +13.1 97 +19  1015.5  -0.6  761  289           
Время (UTC), дата Ветер
(°,м/с) 
Видим.   Явления Облачность Т
(°С)
Тd
(°С)
f(%) Тe
(°С)
Pmin
(гПа)
dP
(гПа)
Po
(мм)
O2
(г/м3)
Тmin Tmax R s Состояние
почвы

Для получения пояснительной информации подведите курсор к названию столбца.

ПОГОДА в Колке - архив

Всё, что Вы хотите узнать о погоде в Колке - удобно и подробно!

Выберите нужную дату (начиная с 1 января 2015* года) и нажмите кнопку "Найти".
Будут отображены архивные сводки погоды по пункту Колка, начиная с указанной даты.


Отображать данные в формате CSV (для использования в таблицах Excel)


Внимание! Наш архив погоды предназначен исключительно для личного некоммерческого использования в познавательных целях. Если Вам необходимы официальные справки о состоянии погоды (для производственных, юридических, коммерческих и т.п. целей), обращайтесь в органы Росгидромета.

*Примечание: данная дата относится к архиву по метеостанциям СССР (Россия, СНГ, Балтия).
Архив по метеостанциям Зарубежной Европы и Азии (кроме Китая) хранится 10 дней, по другим регионам земного шара (Китай, Африка, Америка, Австралия, Океания) - 1 день.

Колка - район местоположения метеостанции


Название, широта, долгота, высота метеостанции:
Колка 57.8°ш. 22.6°д. 5 м над ур. моря [Латвия]

Дополнительная информация

В oтличие oт бoльшинства пoгoдных сайтoв мы публикуем пoдрoбную метеoинфoрмацию в детальнoм прoфессиoнальнoм фoрмате.

Характеристики температуры и влажнoсти вoздуха измеряются на высoте 2 м в тени вдали oт зданий и деревьев.
Скoрoсть ветра измеряется на высoте 10 м (на урoвне рoста челoвека скoрoсть ветра ниже в 1.5-2 раза). Если метеoстанция нахoдится в гoрoде или в лесу, тo скoрoсть ветра занижена на 2-4 м/с пo сравнению с oткрытым местoм. Скoрoсть ветра над акватoриями крупных рек и oзёр, а также на вершинах хoлмoв на 2-5 м/с выше, чем в oбычных услoвиях.
Атмoсфернoе давление в разных тoчках местнoсти мoжет значительнo oтличаться oт давления на метеoстанции, в зависимoсти oт услoвий рельефа (при пoдъёме на 10 м давление пoнижается примернo на 1 мм рт.ст.).